User: anonymous   Login
Location: Nebula Knoll Observatory
(43.6666°N, 71.0000°W)
Time: 22:01:21
(UTC-04:00)
Language:

Cosmos 1782 - Orbit

View from above orbital plane
View from above orbital plane
View from above satellite
View from above satellite

Ground track
Ground track

The orbit data is extracted from the following two-line orbital elements,

1 16986U 86074A   16210.62080776  .00000205  00000-0  11965-4 0  9994
2 16986  82.5051  75.9107 0011835  17.0821 343.0803 15.06167839622141
Epoch (UTC): 28 July 2016 14:53:57
Eccentricity: 0.0011835
inclination: 82.5051°
perigee height: 540 km
apogee height: 556 km
right ascension of ascending node: 75.9107°
argument of perigee: 17.0821°
revolutions per day: 15.06167839
mean anomaly at epoch: 343.0803°
orbit number at epoch: 62214

The dashed part of the orbit path shows where the satellite is in the earth's shadow,  

DLR